Main page
METAR-TAF:

METAR-TAF

Airports :

Bandar Lengeh, Iran

Bandar Lengeh Airport

latitude: 26-35N, longitude: 054-50E, elevation: 14 m

Current weather observation

The report was made 49 minutes ago, at 04:00 UTC
Wind 14 kt from the East
Temperature 33°C
Humidity 71%
Pressure 1003 hPa
Visibility: 5000 m
sand

METAR: OIBL 240400Z 09014KT 5000 SA NSC 33/27 Q1003

Time: 09:19 (04:49 UTC)


TAF: missing

Weather observations and forecasts of more than 4000 airports (METAR and TAF reports).

The available stations are represented by yellow and red dots on the map.

Hover mouse over dot to see the name of the station.

Then click to see weather observations and forecasts.

To change the map : click on the green buttons with a black cross to zoom in, on the green button with a dash to zoom out, or on the green arrows for adjacent maps.


METAR-TAF: